COSMOS 1275 DEB, 13022

Orbit data source: Space-Track

COSMOS 1275 DEB, 13022 is space debris in LEO originally from a launch on Thu, 04 Jun 1981 UTC launched from the Plesetsk Missile And Space Complex (PKMTR). Debris objects in space refer to the collection of defunct objects orbiting the Earth. Examples of debris include non-operational satellites, rocket bodies, and fragments generated from explosions, collisions, or faulty payload assembly.

Loading next visibility...
Identifier
13022, 1981-053EU
Orbit
LEO
Country
Flag of CISCIS
Related business
Manufacturer
Unknown
Mission
Spacecraft
Bus & Motor
Unknown
Mass
Unknown
Launch date (UTC)
1981-06-04 (45 years ago)
Launch vehicle
Unknown
Launch site
Plesetsk Missile And Space Complex (PKMTR)
Object type
Payload
Rocket body
Debris
Shape & HBR
Unknown shape, 0.1 m
Radar Cross Section
Small (<0.1 m²)

Expand to show TLE details & history
Last TLE update: 14 hours ago

TLE from 14 hours ago
0 COSMOS 1275 DEB
1 13022U 81053EU  26119.53689277  .00001218  00000-0  55631-3 0  9996
2 13022  82.9127 300.9625 0044385 149.0554 266.3448 14.20282693278542
Epoch: 2026-04-29T12:53Z
TLE epoch observation values (Epoch: 2026-04-29T12:53:07.535Z)
Latitude
54.37428°
Longitude
-99.87733°
Altitude
835.554 km
Speed
7.439 km/s
True Right ascension
20h 43m 36s
True Declination
54° 12' 47"
Sunlit
Object was in daylight at epoch
Visualization orbit readout
Latitude
Unknown
Longitude
Unknown
Altitude
Unknown
Speed
Unknown
Apparent Right ascension
Unknown
Apparent Declination
Unknown
Sunlit
N/A
Visualization observer readout
Local Sidereal Time
10:28:34
Azimuth
Unknown
Elevation
Unknown
Doppler factor
Unknown
Orbital elements
Apogee altitude
853.44 km
Perigee altitude
789.529 km
Semi-major axis
7,199.621 km
Eccentricity
0.00444
Inclination
82.9127°
RAAN
300.9625°
Arg. of periapsis
149.0554°
True anomaly
265.83741°
Mean anomaly
266.3448°
Eccentric anomaly
266.09108°
Mean motion
3.55286 °/min
Orbital period
101.33 mins
BSTAR
0.00055631
Loading maneuver chart data...
Computing Atmospheric mass density...
Loading historical data...
Loading historical data...
Loading historical data...
Loading historical data...
Loading historical data...
Loading historical data...
Loading historical data...

Documentation

Showing up to 5 results
|